Regional Weather Roundup
Issued by NWS Mobile, AL

Home | Current Version | Previous Version | Text Only | Print | Product List | Glossary On
Versions: 1 2 3 4 5 6 7 8 9 10 11 12 13 14 15 16 17 18 19 20 21 22 23 24 25 26 27 28 29 30 31 32 33 34 35 36 37 38 39 40 41 42 43 44 45 46 47 48 49 50
000
ASUS44 KMOB 280017
RWRMOB
REGIONAL WEATHER ROUNDUP
NATIONAL WEATHER SERVICE MOBILE AL
700 PM CDT WED MAY 27 2015

ALZ061>064-280100-
COASTAL ALABAMA


CITY           SKY/WX    TMP DP  RH WIND       PRES   REMARKS
MOBILE REG APT CLOUDY    77  71  82 CALM      30.10F
6HR MIN TEMP:  73; 6HR MAX TEMP:  85; 6HR PCP:  0.31;

BROOKLEY FIELD CLOUDY    75  70  84 NW5       30.11F
6HR MIN TEMP:  73; 6HR MAX TEMP:  85; 6HR PCP:  0.07;

GULF SHORES    CLOUDY    79  73  80 SW5       30.11R
6HR MIN TEMP:  79; 6HR MAX TEMP:  84;


$$

ALZ051>060-280100-
INTERIOR SOUTHWEST AND SOUTH CENTRAL ALABAMA


CITY           SKY/WX    TMP DP  RH WIND       PRES   REMARKS
ANDALUSIA/OPP  CLOUDY    77  68  73 CALM      30.16R
6HR MIN TEMP:  77; 6HR MAX TEMP:  90; 6HR PCP:  0.07;

EVERGREEN      LGT RAIN  70  69  97 CALM      30.16R
6HR MIN TEMP:  68; 6HR MAX TEMP:  86; 6HR PCP:  1.16;

FLORALA        CLOUDY    73  69  87 CALM      30.17R
6HR MIN TEMP:  70; 6HR MAX TEMP:  84; 6HR PCP: TRACE;

GREENVILLE     MOCLDY    73  69  87 VRB3      30.15R
6HR MIN TEMP:  71; 6HR MAX TEMP:  88; 6HR PCP:  0.01;


$$

FLZ001>006-280100-
WESTERN FLORIDA PANHANDLE


CITY           SKY/WX    TMP DP  RH WIND       PRES   REMARKS
CRESTVIEW      CLOUDY    76  71  85 E6        30.15R
6HR MIN TEMP:  74; 6HR MAX TEMP:  83; 6HR PCP: TRACE;

DESTIN         CLOUDY    81  72  74 SE8       30.13R
6HR MIN TEMP:  81; 6HR MAX TEMP:  86;

DUKE FIELD     MOCLDY    79  71  76 E7        30.13R
6HR MIN TEMP:  76; 6HR MAX TEMP:  87;

MARY ESTHER    MOCLDY    81  73  77 SE8       30.11R
6HR MIN TEMP:  81; 6HR MAX TEMP:  84;

MILTON         CLOUDY    80  71  74 SE3       30.13R
6HR MIN TEMP:  80; 6HR MAX TEMP:  88;

PENSACOLA      MOCLDY    79  70  74 S7        30.12R
6HR MIN TEMP:  79; 6HR MAX TEMP:  83;

NAS PENSACOLA  CLOUDY    80  72  76 SE6       30.11R
6HR MIN TEMP:  80; 6HR MAX TEMP:  86;

VALPARAISO     MOCLDY    80  74  80 S8        30.13R
6HR MIN TEMP:  80; 6HR MAX TEMP:  85;


$$

...MARINE OBSERVATIONS...

STATION/POSITION TIME  SKY/WX   TEMP    WIND        PRES    VSBY
                                AIR SEA DIR/SP/G
                 (UTC)          (F)     (DEG/KT/KT) (MB)    (MI)
PASCAGOULA       2300            79      40/  4/  4 1018.7F
PETIT BOIS ISL   2300            81     360/  1/  1 1019.3F
E DAUPHIN ISLAND 0000            79      80/  3/  3 1019.1F
MIDDLE BAY LIGHT 2300            78     230/ 13     1018.3F
USCG MOBILE BAY  2300            75 80  290/  7/ 12 1018.8F
STATE DOCKS      2300            76 79              1019.5F
MEAHER PARK      2300            76     330/  3     1019.3R
FORT MORGAN      2300            78     290/ 18/ 20 1018.7F
12 S ORANGE BCH  2350            80 81  180/ 10/ 12 1018.9R
WVE H/P(F/S)=  3/ 6

PENSACOLA BAY    2300            83 82  190/  3/  5 1019.8S
64 S DAUPHIN ISL 2350            77 81  150/ 12/ 14 1020.5R
WVE H/P(F/S)=  3/ 7

67 S FORT MORGAN 2330            75     110/  6     1020.0
115 SE PENSACOLA 2350            80 82  120/ 10/ 12 1019.5S
WVE H/P(F/S)=  3/ 6

MID GULF/42001   2350            82 83   50/  8/ 10 1018.3R
WVE H/P(F/S)=  4/ 8

EAST GULF/42003  2350            81 82   80/ 12/ 14 1018.2R
WVE H/P(F/S)=  4/ 6


$$

...NEARBY LOCATIONS

CITY           SKY/WX    TMP DP  RH WIND       PRES   REMARKS
GULFPORT       PTCLDY    80  67  64 NE6       30.06F
6HR MIN TEMP:  74; 6HR MAX TEMP:  83;

BILOXI         MOCLDY    78  71  77 E7        30.07S
6HR MIN TEMP:  77; 6HR MAX TEMP:  84; 6HR PCP: TRACE;

PASCAGOULA     PTCLDY    79  71  76 E6        30.08F
6HR MIN TEMP:  77; 6HR MAX TEMP:  84; 6HR PCP: TRACE;

HATTIESBURG    PTCLDY    77  70  79 E3        30.10S
6HR MIN TEMP:  70; 6HR MAX TEMP:  83; 6HR PCP:  0.88;

LAUREL         PTCLDY    75  68  78 SE7       30.10R
6HR MIN TEMP:  68; 6HR MAX TEMP:  82; 6HR PCP:  0.81;

MERIDIAN       CLOUDY    72  67  84 E3        30.11R
6HR MIN TEMP:  69; 6HR MAX TEMP:  84; 6HR PCP:  0.11;

MERIDIAN NAS   CLOUDY    71  68  90 NE3       30.12R
6HR MIN TEMP:  70; 6HR MAX TEMP:  86; 6HR PCP:  0.16;

MONTGOMERY     CLOUDY    73  69  87 CALM      30.15R
6HR MIN TEMP:  71; 6HR MAX TEMP:  89; 6HR PCP:  0.23;

MAXWELL AFB    CLOUDY    72  71  96 N6        30.14R
6HR MIN TEMP:  71; 6HR MAX TEMP:  89; 6HR PCP:  0.27;

TROY           CLOUDY    76  69  79 S7G23     30.17R
6HR MIN TEMP:  76; 6HR MAX TEMP:  88; 6HR PCP:  0.11;

FORT RUCKER    CLOUDY    73  67  81 NW8       30.14F THUNDER
6HR MIN TEMP:  73; 6HR MAX TEMP:  86; 6HR PCP:  0.06;

DALEVILLE      CLOUDY    72  70  94 W6        30.14F
6HR MIN TEMP:  71; 6HR MAX TEMP:  87; 6HR PCP:  0.35;

DOTHAN         LGT RAIN  71  69  93 NW7       30.18R
6HR MIN TEMP:  68; 6HR MAX TEMP:  86; 6HR PCP:  1.39;


$$

...OTHER SURROUNDING LOCATIONS...

CITY           SKY/WX    TMP DP  RH WIND       PRES   REMARKS
BIRMINGHAM     TSTM      68  66  93 S9        30.20R FOG
6HR MIN TEMP:  68; 6HR MAX TEMP:  85; 6HR PCP:  0.12;

TUSCALOOSA     CLOUDY    70  68  93 NE5       30.16R
6HR MIN TEMP:  69; 6HR MAX TEMP:  85; 6HR PCP:  0.41;

COLUMBUS GA    MOCLDY    79  72  79 CALM      30.13R
6HR MIN TEMP:  79; 6HR MAX TEMP:  85; 6HR PCP:  0.04;

PANAMA CITY    NOT AVBL
TALLAHASSEE    CLOUDY    78  73  84 E3        30.12S THUNDER
6HR MIN TEMP:  77; 6HR MAX TEMP:  87; 6HR PCP:  0.09;

BATON ROUGE    MOSUNNY   75  68  78 E6        30.06R
6HR MIN TEMP:  68; 6HR MAX TEMP:  80; 6HR PCP:  0.01;

NEW ORLEANS    PTSUNNY   79  67  66 CALM      30.07R
6HR MIN TEMP:  70; 6HR MAX TEMP:  80; 6HR PCP:  0.01;

SLIDELL        PTCLDY    77  71  82 NW3       30.07R
6HR MIN TEMP:  67; 6HR MAX TEMP:  80; 6HR PCP:  0.45;

JACKSON        MOSUNNY   78  70  76 NE6       30.07R
6HR MIN TEMP:  73; 6HR MAX TEMP:  82; 6HR PCP:  0.13;

MCCOMB         SUNNY     76  69  79 SE7       30.08R
6HR MIN TEMP:  68; 6HR MAX TEMP:  79; 6HR PCP:  0.11;


$$

...SURROUNDING MARINE OBSERVATIONS...

STATION/POSITION TIME  SKY/WX   TEMP    WIND        PRES    VSBY
                                AIR SEA DIR/SP/G
                 (UTC)          (F)     (DEG/KT/KT) (MB)    (MI)
WAVELAND         2300            78 80  120/  8/ 10 1018.3F
PASCAGOULA RGN A 2300            80      10/  2/  3 1018.4F
PASCAGOULA PORT  2300               83                N/A
GRAND ISLE       2300            78 81  130/  7/ 11 1018.0F
SOUTHWEST PASS   0000            77     140/ 15/ 16 1017.9F
PILOT STATION E  2300            77 75  100/  7/  7 1019.8F
SHELL BEACH      2300            80 81  110/  7/ 11 1017.3F
PANAMA CITY      2300            78 83   90/  4/  7 1019.1F
APALACHICOLA     2300            80 83  160/  6/  8 1019.6F
TYNDALL TOWER C  0000            78     160/  8/  9 1019.7F
S APLCHCLA/42036 2350            80 81   CALM  /  2 1019.7F
WVE H/P(F/S)=  3/ 6


$$




USA.gov is the U.S. government's official web portal to all federal, state and local government web resources and services.